QPF
0.01 0.00 0.00 0.01 0.02 0.02 0.01 0.01 0.00 0.00 0.01 0.01 0.01 0.01 0.01 0.01 0.02 0.03 0.04 0.05 0.06 0.03 0.02 0.02 0.02 0.03 0.02 0.01 0.02 0.03 0.02 0.02 0.02 0.03 0.04 0.02 0.02 0.04 0.02 0.02 0.03 0.02 0.03 0.04 0.04 0.03 0.03 0.02 0.01
0.01 0.00 0.01 0.01 0.02 0.01 0.00 0.00 0.01 0.00 0.01 0.01 0.01 0.01 0.01 0.01 0.01 0.02 0.03 0.06 0.07 0.04 0.02 0.01 0.01 0.02 0.02 0.02 0.02 0.02 0.02 0.02 0.03 0.03 0.04 0.03 0.03 0.05 0.04 0.03 0.03 0.03 0.03 0.04 0.04 0.03 0.02 0.02 0.02
0.01 0.01 0.01 0.01 0.01 0.01 0.01 0.01 0.01 0.00 0.01 0.01 0.01 0.01 0.01 0.01 0.02 0.02 0.03 0.05 0.05 0.04 0.03 0.02 0.01 0.02 0.02 0.02 0.03 0.03 0.04 0.04 0.04 0.03 0.05 0.04 0.03 0.04 0.05 0.03 0.02 0.02 0.02 0.03 0.03 0.02 0.02 0.01 0.01
0.02 0.02 0.01 0.01 0.01 0.01 0.01 0.01 0.01 0.00 0.00 0.00 0.01 0.01 0.01 0.01 0.02 0.02 0.02 0.04 0.03 0.04 0.03 0.03 0.02 0.02 0.02 0.02 0.03 0.03 0.04 0.05 0.05 0.04 0.05 0.05 0.05 0.05 0.05 0.03 0.02 0.01 0.01 0.02 0.02 0.02 0.01 0.01 0.01
0.02 0.02 0.01 0.01 0.00 0.00 0.01 0.01 0.01 0.01 0.01 0.01 0.01 0.01 0.01 0.01 0.01 0.01 0.03 0.04 0.03 0.04 0.05 0.03 0.02 0.03 0.02 0.03 0.03 0.04 0.05 0.04 0.05 0.04 0.06 0.06 0.05 0.05 0.05 0.03 0.02 0.01 0.02 0.02 0.02 0.01 0.01 0.01 0.01
0.02 0.01 0.01 0.00 0.00 0.00 0.01 0.02 0.02 0.01 0.00 0.00 0.01 0.01 0.01 0.01 0.01 0.01 0.03 0.05 0.05 0.06 0.06 0.05 0.04 0.03 0.03 0.05 0.05 0.04 0.06 0.05 0.05 0.05 0.07 0.07 0.05 0.05 0.05 0.03 0.02 0.01 0.01 0.01 0.01 0.01 0.01 0.01 0.00
0.02 0.01 0.00 0.00 0.00 0.00 0.01 0.02 0.02 0.01 0.01 0.00 0.00 0.01 0.01 0.02 0.03 0.02 0.03 0.05 0.05 0.06 0.07 0.05 0.04 0.04 0.03 0.05 0.06 0.05 0.06 0.06 0.05 0.06 0.07 0.07 0.06 0.05 0.04 0.03 0.02 0.01 0.01 0.01 0.01 0.01 0.01 0.01 0.01
0.01 0.02 0.01 0.01 0.00 0.01 0.01 0.01 0.02 0.01 0.01 0.00 0.00 0.00 0.01 0.02 0.03 0.03 0.03 0.05 0.06 0.05 0.06 0.04 0.04 0.04 0.04 0.03 0.05 0.06 0.06 0.06 0.05 0.06 0.05 0.06 0.05 0.03 0.03 0.02 0.02 0.02 0.01 0.01 0.00 0.00 0.01 0.01 0.01
0.01 0.02 0.01 0.01 0.01 0.01 0.01 0.01 0.01 0.01 0.00 0.00 0.00 0.00 0.01 0.02 0.02 0.02 0.03 0.04 0.05 0.05 0.06 0.04 0.02 0.02 0.03 0.03 0.04 0.05 0.06 0.07 0.06 0.06 0.07 0.06 0.04 0.03 0.02 0.02 0.01 0.01 0.01 0.01 0.00 0.00 0.00 0.00 0.00
0.01 0.01 0.01 0.01 0.01 0.01 0.01 0.01 0.01 0.01 0.01 0.01 0.01 0.00 0.00 0.01 0.02 0.02 0.03 0.03 0.04 0.05 0.06 0.05 0.03 0.04 0.03 0.04 0.05 0.04 0.04 0.05 0.05 0.05 0.05 0.06 0.05 0.04 0.03 0.03 0.02 0.01 0.01 0.00 0.00 0.00 0.00 0.00 0.00
0.02 0.01 0.01 0.01 0.01 0.02 0.01 0.01 0.01 0.01 0.02 0.01 0.01 0.01 0.01 0.01 0.02 0.03 0.03 0.02 0.03 0.04 0.06 0.06 0.05 0.04 0.04 0.04 0.04 0.04 0.04 0.04 0.04 0.04 0.05 0.05 0.04 0.04 0.04 0.04 0.03 0.02 0.01 0.00 0.00 0.00 0.00 0.00 0.00
0.01 0.01 0.01 0.01 0.01 0.02 0.01 0.01 0.02 0.02 0.02 0.02 0.01 0.01 0.01 0.01 0.01 0.02 0.03 0.02 0.02 0.05 0.06 0.06 0.05 0.05 0.04 0.05 0.04 0.04 0.04 0.04 0.04 0.04 0.04 0.04 0.05 0.05 0.05 0.05 0.05 0.03 0.01 0.01 0.01 0.00 0.00 0.00 0.00
0.00 0.01 0.02 0.02 0.01 0.01 0.01 0.02 0.02 0.01 0.01 0.01 0.01 0.01 0.01 0.01 0.01 0.01 0.02 0.02 0.02 0.04 0.05 0.05 0.05 0.05 0.04 0.04 0.05 0.06 0.06 0.06 0.07 0.07 0.06 0.05 0.06 0.07 0.07 0.05 0.06 0.05 0.03 0.01 0.01 0.01 0.01 0.01 0.00
0.01 0.01 0.01 0.02 0.02 0.01 0.00 0.01 0.01 0.01 0.00 0.00 0.00 0.00 0.00 0.00 0.01 0.01 0.02 0.02 0.03 0.03 0.02 0.02 0.03 0.04 0.03 0.03 0.03 0.04 0.05 0.07 0.10 0.11 0.09 0.07 0.05 0.07 0.08 0.08 0.07 0.06 0.04 0.01 0.01 0.02 0.01 0.01 0.01
0.01 0.01 0.01 0.01 0.01 0.01 0.00 0.01 0.01 0.01 0.00 0.00 0.00 0.00 0.01 0.01 0.01 0.02 0.03 0.02 0.03 0.04 0.02 0.01 0.02 0.03 0.03 0.03 0.03 0.04 0.04 0.05 0.08 0.13 0.12 0.10 0.08 0.07 0.09 0.09 0.08 0.07 0.05 0.02 0.01 0.01 0.01 0.01 0.01
0.01 0.01 0.01 0.01 0.01 0.01 0.01 0.01 0.01 0.01 0.00 0.00 0.00 0.00 0.01 0.01 0.01 0.01 0.02 0.02 0.04 0.04 0.03 0.02 0.03 0.03 0.03 0.03 0.02 0.04 0.04 0.05 0.06 0.08 0.12 0.12 0.10 0.09 0.10 0.11 0.09 0.07 0.06 0.04 0.01 0.00 0.00 0.00 0.00
0.01 0.01 0.01 0.01 0.01 0.01 0.01 0.01 0.01 0.01 0.00 0.00 0.00 0.00 0.00 0.01 0.01 0.01 0.02 0.02 0.03 0.04 0.03 0.03 0.04 0.06 0.05 0.04 0.03 0.03 0.03 0.04 0.05 0.06 0.08 0.11 0.11 0.10 0.11 0.12 0.12 0.09 0.06 0.04 0.02 0.01 0.00 0.00 0.00
0.01 0.01 0.01 0.01 0.01 0.01 0.01 0.01 0.01 0.01 0.01 0.01 0.00 0.00 0.01 0.01 0.01 0.02 0.02 0.03 0.03 0.04 0.04 0.04 0.05 0.05 0.07 0.06 0.05 0.04 0.04 0.04 0.05 0.06 0.08 0.11 0.12 0.11 0.10 0.10 0.12 0.13 0.09 0.05 0.03 0.02 0.01 0.00 0.00
0.01 0.01 0.01 0.00 0.01 0.01 0.01 0.01 0.01 0.01 0.01 0.01 0.01 0.00 0.00 0.01 0.01 0.02 0.02 0.03 0.03 0.03 0.04 0.04 0.06 0.06 0.06 0.05 0.05 0.04 0.04 0.04 0.04 0.05 0.06 0.09 0.11 0.09 0.07 0.08 0.09 0.13 0.13 0.08 0.03 0.02 0.01 0.01 0.00
0.00 0.00 0.00 0.00 0.00 0.01 0.01 0.01 0.01 0.01 0.01 0.01 0.01 0.01 0.00 0.00 0.01 0.01 0.01 0.02 0.03 0.02 0.02 0.04 0.05 0.05 0.05 0.05 0.04 0.04 0.03 0.03 0.04 0.04 0.05 0.07 0.08 0.07 0.06 0.06 0.07 0.10 0.13 0.11 0.06 0.03 0.02 0.01 0.01
0.01 0.00 0.00 0.00 0.00 0.01 0.01 0.01 0.01 0.01 0.01 0.01 0.01 0.01 0.01 0.01 0.01 0.01 0.01 0.01 0.02 0.02 0.02 0.03 0.04 0.05 0.05 0.05 0.04 0.03 0.03 0.04 0.05 0.06 0.06 0.06 0.07 0.07 0.06 0.05 0.05 0.07 0.10 0.11 0.09 0.05 0.04 0.03 0.02
0.01 0.00 0.00 0.00 0.00 0.01 0.01 0.02 0.01 0.01 0.01 0.01 0.01 0.01 0.01 0.01 0.01 0.01 0.01 0.01 0.02 0.02 0.02 0.02 0.03 0.04 0.05 0.05 0.04 0.04 0.03 0.03 0.03 0.04 0.05 0.06 0.07 0.08 0.07 0.05 0.04 0.04 0.05 0.08 0.09 0.07 0.04 0.04 0.03
0.00 0.00 0.01 0.01 0.01 0.01 0.01 0.02 0.01 0.01 0.01 0.02 0.01 0.01 0.01 0.01 0.01 0.01 0.01 0.01 0.02 0.02 0.02 0.01 0.02 0.02 0.02 0.03 0.03 0.04 0.04 0.03 0.03 0.04 0.04 0.05 0.06 0.07 0.07 0.07 0.06 0.05 0.04 0.05 0.09 0.09 0.06 0.04 0.03
0.00 0.01 0.01 0.01 0.02 0.01 0.01 0.01 0.01 0.01 0.01 0.02 0.01 0.01 0.01 0.01 0.01 0.01 0.01 0.02 0.02 0.01 0.01 0.01 0.01 0.02 0.02 0.02 0.02 0.02 0.02 0.02 0.03 0.04 0.04 0.04 0.04 0.06 0.06 0.07 0.06 0.05 0.05 0.05 0.06 0.10 0.11 0.08 0.04
0.01 0.01 0.02 0.03 0.03 0.02 0.00 0.01 0.01 0.01 0.01 0.02 0.01 0.01 0.01 0.00 0.01 0.01 0.01 0.01 0.01 0.01 0.01 0.01 0.01 0.01 0.01 0.01 0.01 0.01 0.01 0.01 0.02 0.02 0.03 0.04 0.04 0.04 0.04 0.05 0.05 0.05 0.04 0.04 0.04 0.05 0.08 0.11 0.10
0.01 0.01 0.02 0.01 0.01 0.01 0.00 0.00 0.01 0.01 0.02 0.02 0.02 0.01 0.01 0.00 0.00 0.00 0.01 0.01 0.01 0.01 0.01 0.01 0.00 0.01 0.01 0.01 0.01 0.01 0.01 0.01 0.01 0.02 0.02 0.03 0.03 0.03 0.03 0.04 0.04 0.04 0.04 0.04 0.04 0.04 0.04 0.05 0.08
0.01 0.01 0.01 0.01 0.01 0.00 0.00 0.00 0.01 0.01 0.02 0.02 0.02 0.01 0.01 0.00 0.00 0.00 0.00 0.01 0.01 0.01 0.01 0.01 0.00 0.00 0.00 0.01 0.01 0.01 0.01 0.01 0.01 0.01 0.01 0.02 0.02 0.03 0.04 0.04 0.04 0.03 0.03 0.04 0.04 0.03 0.03 0.03 0.04
0.01 0.00 0.01 0.02 0.02 0.01 0.00 0.00 0.00 0.01 0.01 0.02 0.01 0.01 0.00 0.00 0.00 0.00 0.00 0.00 0.00 0.01 0.01 0.01 0.00 0.00 0.01 0.01 0.01 0.01 0.01 0.01 0.01 0.01 0.01 0.01 0.01 0.02 0.04 0.06 0.05 0.03 0.03 0.03 0.03 0.03 0.03 0.03 0.03
0.00 0.01 0.01 0.02 0.02 0.01 0.01 0.00 0.00 0.00 0.01 0.01 0.01 0.01 0.00 0.00 0.00 0.00 0.00 0.00 0.00 0.00 0.01 0.01 0.01 0.01 0.01 0.01 0.00 0.00 0.00 0.00 0.01 0.01 0.01 0.01 0.01 0.01 0.02 0.04 0.05 0.05 0.04 0.03 0.03 0.03 0.02 0.02 0.03
0.00 0.01 0.01 0.03 0.02 0.01 0.01 0.00 0.00 0.00 0.00 0.00 0.01 0.01 0.00 0.00 0.00 0.00 0.00 0.00 0.00 0.00 0.01 0.01 0.01 0.00 0.00 0.00 0.00 0.00 0.00 0.00 0.01 0.01 0.01 0.01 0.01 0.01 0.02 0.02 0.03 0.04 0.04 0.04 0.03 0.03 0.03 0.03 0.03
MSLP
1014.53 1015.07 1015.81 1016.61 1017.34 1017.90 1018.20 1018.26 1018.10 1017.85 1017.63 1017.53 1017.63 1017.94 1018.41 1018.94 1019.45 1019.82 1020.02 1020.04 1019.93 1019.74 1019.57 1019.48 1019.51 1019.64 1019.86 1020.10 1020.33 1020.49 1020.59 1020.63 1020.64 1020.66 1020.72 1020.82 1020.95 1021.11 1021.26 1021.37 1021.45 1021.48 1021.47 1021.45 1021.41 1021.36 1021.31 1021.23 1021.12
1014.87 1015.57 1016.41 1017.25 1017.96 1018.44 1018.64 1018.56 1018.30 1017.97 1017.71 1017.60 1017.71 1018.04 1018.52 1019.05 1019.54 1019.88 1020.06 1020.06 1019.94 1019.76 1019.62 1019.56 1019.62 1019.77 1020.00 1020.24 1020.46 1020.62 1020.73 1020.78 1020.83 1020.89 1020.98 1021.12 1021.28 1021.45 1021.60 1021.71 1021.77 1021.80 1021.79 1021.77 1021.75 1021.73 1021.71 1021.66 1021.58
1015.28 1016.10 1017.01 1017.85 1018.51 1018.90 1018.98 1018.79 1018.45 1018.07 1017.78 1017.70 1017.84 1018.19 1018.68 1019.20 1019.66 1019.98 1020.12 1020.10 1019.98 1019.83 1019.72 1019.69 1019.78 1019.96 1020.19 1020.42 1020.62 1020.76 1020.86 1020.92 1020.98 1021.08 1021.21 1021.38 1021.56 1021.74 1021.90 1022.00 1022.05 1022.07 1022.06 1022.05 1022.05 1022.06 1022.06 1022.05 1022.01
1015.74 1016.64 1017.57 1018.39 1018.97 1019.26 1019.23 1018.96 1018.56 1018.16 1017.90 1017.84 1018.02 1018.40 1018.89 1019.39 1019.82 1020.09 1020.19 1020.16 1020.05 1019.92 1019.85 1019.88 1020.00 1020.20 1020.42 1020.63 1020.80 1020.92 1020.99 1021.05 1021.12 1021.23 1021.39 1021.58 1021.79 1021.99 1022.14 1022.24 1022.29 1022.30 1022.30 1022.31 1022.32 1022.35 1022.39 1022.40 1022.39
1016.21 1017.14 1018.06 1018.82 1019.33 1019.52 1019.41 1019.09 1018.68 1018.30 1018.08 1018.08 1018.30 1018.69 1019.17 1019.63 1020.00 1020.22 1020.28 1020.23 1020.13 1020.05 1020.03 1020.10 1020.27 1020.48 1020.70 1020.89 1021.02 1021.10 1021.14 1021.18 1021.25 1021.37 1021.55 1021.77 1022.00 1022.20 1022.36 1022.46 1022.52 1022.53 1022.54 1022.55 1022.58 1022.63 1022.69 1022.73 1022.73
1016.66 1017.58 1018.46 1019.15 1019.57 1019.69 1019.54 1019.21 1018.83 1018.52 1018.37 1018.43 1018.69 1019.08 1019.53 1019.94 1020.23 1020.38 1020.39 1020.32 1020.24 1020.20 1020.24 1020.37 1020.57 1020.81 1021.03 1021.19 1021.29 1021.33 1021.34 1021.36 1021.42 1021.56 1021.75 1021.98 1022.22 1022.44 1022.60 1022.71 1022.76 1022.78 1022.79 1022.81 1022.86 1022.92 1022.98 1023.03 1023.04
1017.06 1017.94 1018.75 1019.36 1019.72 1019.79 1019.64 1019.36 1019.05 1018.84 1018.79 1018.92 1019.22 1019.61 1020.00 1020.33 1020.53 1020.59 1020.55 1020.46 1020.38 1020.38 1020.47 1020.66 1020.91 1021.16 1021.38 1021.53 1021.60 1021.62 1021.60 1021.61 1021.68 1021.82 1022.02 1022.27 1022.52 1022.74 1022.90 1023.00 1023.05 1023.06 1023.08 1023.10 1023.15 1023.21 1023.27 1023.32 1023.33
1017.41 1018.22 1018.95 1019.49 1019.79 1019.86 1019.75 1019.55 1019.36 1019.27 1019.34 1019.55 1019.88 1020.25 1020.58 1020.81 1020.90 1020.87 1020.77 1020.64 1020.57 1020.59 1020.73 1020.96 1021.24 1021.52 1021.74 1021.89 1021.95 1021.95 1021.94 1021.95 1022.02 1022.18 1022.39 1022.64 1022.89 1023.10 1023.25 1023.34 1023.38 1023.38 1023.39 1023.41 1023.45 1023.51 1023.57 1023.61 1023.61
1017.69 1018.43 1019.08 1019.56 1019.84 1019.93 1019.90 1019.81 1019.76 1019.82 1020.00 1020.30 1020.65 1020.99 1021.25 1021.38 1021.36 1021.23 1021.05 1020.88 1020.79 1020.83 1020.98 1021.24 1021.54 1021.84 1022.07 1022.22 1022.28 1022.29 1022.30 1022.33 1022.42 1022.59 1022.82 1023.07 1023.31 1023.50 1023.64 1023.70 1023.72 1023.72 1023.72 1023.73 1023.77 1023.82 1023.87 1023.90 1023.89
1017.94 1018.61 1019.19 1019.62 1019.90 1020.04 1020.10 1020.16 1020.26 1020.46 1020.76 1021.12 1021.49 1021.79 1021.97 1022.00 1021.88 1021.65 1021.39 1021.17 1021.05 1021.07 1021.22 1021.48 1021.78 1022.08 1022.31 1022.47 1022.55 1022.59 1022.62 1022.69 1022.82 1023.01 1023.25 1023.49 1023.71 1023.89 1023.99 1024.04 1024.04 1024.03 1024.02 1024.04 1024.08 1024.12 1024.16 1024.18 1024.15
1018.20 1018.79 1019.31 1019.72 1020.02 1020.23 1020.40 1020.59 1020.84 1021.18 1021.58 1021.99 1022.36 1022.62 1022.72 1022.65 1022.43 1022.11 1021.77 1021.49 1021.32 1021.30 1021.42 1021.65 1021.93 1022.21 1022.44 1022.60 1022.71 1022.78 1022.86 1022.97 1023.13 1023.34 1023.58 1023.82 1024.03 1024.17 1024.26 1024.29 1024.28 1024.27 1024.27 1024.30 1024.35 1024.40 1024.43 1024.44 1024.40
1018.48 1019.02 1019.50 1019.91 1020.24 1020.52 1020.81 1021.13 1021.50 1021.94 1022.42 1022.86 1023.21 1023.42 1023.45 1023.29 1022.98 1022.58 1022.17 1021.82 1021.60 1021.52 1021.58 1021.75 1021.98 1022.22 1022.43 1022.59 1022.72 1022.83 1022.94 1023.10 1023.29 1023.52 1023.77 1023.99 1024.17 1024.30 1024.37 1024.39 1024.39 1024.40 1024.43 1024.49 1024.56 1024.62 1024.66 1024.66 1024.60
1018.82 1019.32 1019.79 1020.20 1020.58 1020.95 1021.33 1021.76 1022.24 1022.75 1023.26 1023.70 1024.02 1024.18 1024.13 1023.90 1023.52 1023.05 1022.58 1022.17 1021.88 1021.73 1021.71 1021.80 1021.96 1022.14 1022.31 1022.46 1022.60 1022.73 1022.88 1023.07 1023.29 1023.52 1023.76 1023.96 1024.12 1024.23 1024.29 1024.33 1024.36 1024.41 1024.48 1024.58 1024.69 1024.78 1024.82 1024.81 1024.73
1019.22 1019.70 1020.17 1020.62 1021.06 1021.50 1021.98 1022.49 1023.03 1023.58 1024.09 1024.50 1024.78 1024.87 1024.77 1024.48 1024.04 1023.53 1023.01 1022.55 1022.19 1021.96 1021.86 1021.86 1021.93 1022.04 1022.16 1022.28 1022.41 1022.56 1022.72 1022.92 1023.14 1023.37 1023.58 1023.76 1023.90 1023.99 1024.06 1024.11 1024.18 1024.28 1024.42 1024.57 1024.72 1024.84 1024.90 1024.88 1024.78
1019.66 1020.15 1020.65 1021.14 1021.65 1022.18 1022.72 1023.29 1023.86 1024.42 1024.90 1025.27 1025.49 1025.52 1025.37 1025.04 1024.58 1024.04 1023.50 1023.00 1022.58 1022.28 1022.09 1022.00 1021.98 1022.01 1022.07 1022.16 1022.26 1022.40 1022.57 1022.76 1022.96 1023.16 1023.34 1023.48 1023.58 1023.66 1023.73 1023.81 1023.92 1024.07 1024.26 1024.47 1024.66 1024.81 1024.88 1024.85 1024.73
1020.13 1020.64 1021.18 1021.75 1022.33 1022.93 1023.54 1024.14 1024.73 1025.26 1025.70 1026.01 1026.17 1026.16 1025.97 1025.62 1025.16 1024.63 1024.08 1023.56 1023.12 1022.75 1022.48 1022.30 1022.20 1022.15 1022.15 1022.19 1022.27 1022.39 1022.53 1022.69 1022.86 1023.01 1023.14 1023.23 1023.30 1023.35 1023.41 1023.50 1023.64 1023.83 1024.06 1024.30 1024.52 1024.68 1024.76 1024.73 1024.60
1020.59 1021.14 1021.74 1022.38 1023.04 1023.71 1024.37 1025.01 1025.58 1026.08 1026.47 1026.73 1026.84 1026.79 1026.59 1026.26 1025.82 1025.32 1024.80 1024.29 1023.82 1023.42 1023.09 1022.84 1022.66 1022.54 1022.48 1022.48 1022.53 1022.61 1022.72 1022.84 1022.95 1023.04 1023.11 1023.14 1023.16 1023.17 1023.21 1023.29 1023.43 1023.63 1023.86 1024.11 1024.33 1024.49 1024.56 1024.53 1024.40
1021.03 1021.63 1022.30 1023.01 1023.75 1024.48 1025.18 1025.83 1026.39 1026.85 1027.19 1027.41 1027.48 1027.43 1027.25 1026.96 1026.58 1026.14 1025.67 1025.19 1024.74 1024.31 1023.94 1023.63 1023.39 1023.22 1023.11 1023.07 1023.08 1023.12 1023.19 1023.26 1023.32 1023.34 1023.34 1023.30 1023.26 1023.22 1023.21 1023.25 1023.36 1023.52 1023.72 1023.94 1024.13 1024.27 1024.32 1024.29 1024.17
1021.45 1022.09 1022.82 1023.60 1024.39 1025.18 1025.90 1026.55 1027.10 1027.53 1027.83 1028.02 1028.10 1028.07 1027.94 1027.73 1027.43 1027.08 1026.69 1026.26 1025.83 1025.41 1025.02 1024.67 1024.39 1024.17 1024.02 1023.94 1023.91 1023.92 1023.94 1023.97 1023.96 1023.93 1023.86 1023.75 1023.64 1023.53 1023.46 1023.43 1023.47 1023.56 1023.69 1023.83 1023.96 1024.04 1024.08 1024.04 1023.94
1021.86 1022.53 1023.29 1024.12 1024.95 1025.76 1026.50 1027.14 1027.67 1028.07 1028.37 1028.56 1028.66 1028.69 1028.64 1028.53 1028.35 1028.11 1027.81 1027.46 1027.07 1026.67 1026.27 1025.90 1025.59 1025.33 1025.14 1025.02 1024.96 1024.94 1024.93 1024.90 1024.86 1024.77 1024.64 1024.47 1024.29 1024.11 1023.96 1023.85 1023.78 1023.76 1023.78 1023.82 1023.86 1023.88 1023.87 1023.83 1023.77
1022.28 1022.95 1023.73 1024.56 1025.41 1026.22 1026.94 1027.57 1028.07 1028.47 1028.76 1028.98 1029.14 1029.25 1029.31 1029.32 1029.28 1029.16 1028.97 1028.71 1028.38 1028.01 1027.62 1027.24 1026.90 1026.61 1026.39 1026.24 1026.14 1026.08 1026.04 1025.98 1025.90 1025.77 1025.60 1025.39 1025.15 1024.91 1024.67 1024.46 1024.28 1024.14 1024.02 1023.94 1023.87 1023.81 1023.76 1023.72 1023.68
1022.73 1023.38 1024.14 1024.95 1025.77 1026.54 1027.24 1027.83 1028.32 1028.71 1029.02 1029.29 1029.53 1029.74 1029.93 1030.08 1030.17 1030.19 1030.11 1029.94 1029.68 1029.35 1028.97 1028.58 1028.22 1027.91 1027.65 1027.46 1027.34 1027.25 1027.17 1027.09 1026.99 1026.84 1026.65 1026.41 1026.13 1025.84 1025.53 1025.22 1024.93 1024.66 1024.42 1024.21 1024.03 1023.89 1023.79 1023.74 1023.72
1023.23 1023.83 1024.53 1025.28 1026.04 1026.76 1027.40 1027.96 1028.43 1028.82 1029.18 1029.50 1029.83 1030.16 1030.48 1030.77 1031.00 1031.14 1031.18 1031.09 1030.90 1030.60 1030.25 1029.86 1029.48 1029.14 1028.86 1028.63 1028.46 1028.34 1028.24 1028.14 1028.02 1027.87 1027.67 1027.43 1027.14 1026.81 1026.45 1026.07 1025.69 1025.31 1024.95 1024.63 1024.36 1024.15 1024.01 1023.93 1023.92
1023.77 1024.30 1024.92 1025.59 1026.26 1026.90 1027.49 1028.01 1028.46 1028.87 1029.27 1029.67 1030.09 1030.53 1030.97 1031.38 1031.74 1031.99 1032.12 1032.11 1031.98 1031.73 1031.39 1031.02 1030.63 1030.27 1029.95 1029.69 1029.49 1029.33 1029.21 1029.09 1028.96 1028.81 1028.62 1028.38 1028.10 1027.76 1027.37 1026.94 1026.50 1026.04 1025.60 1025.20 1024.86 1024.60 1024.42 1024.33 1024.32
1024.33 1024.77 1025.30 1025.86 1026.45 1027.01 1027.53 1028.02 1028.46 1028.90 1029.35 1029.83 1030.34 1030.88 1031.42 1031.94 1032.38 1032.72 1032.92 1032.98 1032.90 1032.69 1032.39 1032.03 1031.64 1031.27 1030.93 1030.64 1030.40 1030.21 1030.06 1029.92 1029.79 1029.64 1029.46 1029.24 1028.97 1028.64 1028.25 1027.80 1027.32 1026.83 1026.35 1025.90 1025.53 1025.24 1025.04 1024.95 1024.93
1024.87 1025.23 1025.66 1026.13 1026.61 1027.10 1027.57 1028.04 1028.50 1028.97 1029.48 1030.03 1030.62 1031.24 1031.86 1032.44 1032.94 1033.33 1033.59 1033.69 1033.66 1033.49 1033.22 1032.89 1032.52 1032.15 1031.80 1031.49 1031.23 1031.00 1030.82 1030.66 1030.52 1030.38 1030.21 1030.01 1029.75 1029.44 1029.06 1028.62 1028.14 1027.64 1027.15 1026.71 1026.33 1026.05 1025.86 1025.77 1025.74
1025.38 1025.65 1025.99 1026.36 1026.77 1027.19 1027.63 1028.09 1028.57 1029.10 1029.67 1030.29 1030.95 1031.62 1032.28 1032.90 1033.42 1033.84 1034.11 1034.25 1034.25 1034.13 1033.91 1033.62 1033.29 1032.94 1032.60 1032.28 1031.99 1031.75 1031.54 1031.36 1031.20 1031.05 1030.89 1030.70 1030.46 1030.17 1029.82 1029.40 1028.94 1028.46 1028.00 1027.58 1027.24 1026.99 1026.83 1026.76 1026.74
1025.83 1026.04 1026.29 1026.58 1026.91 1027.28 1027.70 1028.17 1028.70 1029.28 1029.92 1030.61 1031.32 1032.02 1032.70 1033.31 1033.83 1034.24 1034.52 1034.67 1034.70 1034.62 1034.46 1034.23 1033.95 1033.65 1033.33 1033.02 1032.73 1032.47 1032.23 1032.03 1031.86 1031.69 1031.53 1031.35 1031.12 1030.85 1030.52 1030.13 1029.70 1029.27 1028.85 1028.48 1028.20 1028.00 1027.89 1027.85 1027.85
1026.27 1026.40 1026.56 1026.77 1027.03 1027.36 1027.77 1028.26 1028.83 1029.48 1030.19 1030.93 1031.68 1032.41 1033.08 1033.67 1034.16 1034.54 1034.81 1034.97 1035.03 1035.00 1034.90 1034.74 1034.53 1034.28 1034.01 1033.73 1033.44 1033.17 1032.92 1032.70 1032.50 1032.33 1032.16 1031.97 1031.76 1031.50 1031.19 1030.83 1030.44 1030.05 1029.68 1029.38 1029.15 1029.02 1028.97 1028.98 1029.01
1026.71 1026.77 1026.84 1026.95 1027.14 1027.42 1027.81 1028.32 1028.94 1029.65 1030.42 1031.22 1032.00 1032.73 1033.39 1033.95 1034.41 1034.75 1035.00 1035.16 1035.25 1035.27 1035.24 1035.16 1035.03 1034.85 1034.63 1034.38 1034.11 1033.84 1033.58 1033.34 1033.13 1032.94 1032.77 1032.59 1032.38 1032.13 1031.84 1031.51 1031.15 1030.80 1030.49 1030.23 1030.07 1030.00 1030.01 1030.06 1030.12
Thickness
5668 5671 5671 5664 5649 5635 5637 5650 5664 5669 5673 5679 5682 5680 5675 5671 5670 5667 5677 5684 5684 5683 5684 5683 5683 5683 5683 5682 5681 5681 5680 5680 5679 5678 5678 5677 5676 5676 5676 5675 5675 5674 5674 5673 5672 5671 5670 5669 5669
5664 5665 5661 5650 5634 5624 5634 5652 5660 5667 5674 5678 5677 5675 5670 5667 5670 5671 5674 5678 5679 5679 5679 5679 5679 5679 5678 5678 5677 5677 5676 5676 5675 5674 5674 5673 5672 5672 5672 5671 5670 5670 5669 5668 5668 5666 5665 5665 5664
5660 5659 5647 5636 5627 5626 5640 5655 5660 5667 5673 5673 5668 5667 5665 5662 5665 5667 5670 5673 5675 5674 5673 5673 5673 5674 5673 5673 5673 5672 5672 5671 5671 5670 5669 5669 5668 5667 5667 5666 5666 5665 5664 5664 5663 5662 5661 5660 5660
5652 5645 5637 5627 5628 5637 5646 5655 5659 5662 5666 5668 5663 5657 5658 5660 5662 5664 5667 5669 5669 5668 5668 5668 5668 5668 5668 5668 5668 5668 5668 5667 5666 5666 5665 5664 5663 5663 5662 5662 5661 5660 5659 5659 5658 5657 5656 5656 5655
5642 5632 5624 5618 5627 5639 5648 5654 5656 5656 5656 5658 5657 5651 5649 5655 5658 5660 5662 5663 5663 5662 5662 5662 5662 5663 5663 5663 5663 5663 5663 5662 5662 5661 5660 5659 5658 5658 5657 5657 5656 5655 5654 5653 5653 5652 5651 5651 5650
5627 5620 5611 5611 5623 5637 5645 5650 5651 5648 5647 5649 5648 5646 5643 5648 5651 5652 5655 5656 5656 5656 5655 5655 5656 5656 5657 5657 5657 5658 5657 5657 5656 5656 5655 5655 5654 5653 5652 5652 5651 5650 5649 5648 5648 5647 5646 5646 5646
5618 5610 5609 5614 5620 5629 5640 5645 5642 5640 5640 5640 5643 5638 5637 5641 5643 5645 5647 5648 5649 5649 5649 5648 5648 5649 5650 5651 5651 5651 5651 5651 5651 5650 5649 5649 5648 5647 5647 5646 5645 5645 5644 5643 5642 5642 5641 5641 5640
5617 5608 5609 5610 5616 5623 5634 5637 5637 5636 5634 5638 5638 5632 5629 5635 5637 5638 5639 5640 5640 5640 5641 5641 5641 5642 5643 5644 5645 5645 5645 5645 5644 5644 5643 5643 5642 5641 5641 5641 5640 5639 5638 5637 5637 5637 5636 5636 5635
5615 5600 5600 5608 5612 5619 5627 5628 5629 5632 5630 5629 5629 5628 5630 5630 5630 5630 5630 5630 5631 5632 5632 5633 5634 5635 5636 5637 5638 5638 5638 5638 5637 5637 5636 5636 5635 5635 5635 5634 5634 5633 5632 5632 5631 5631 5631 5630 5630
5602 5592 5601 5609 5612 5615 5619 5619 5620 5621 5618 5619 5620 5620 5622 5622 5623 5622 5622 5622 5622 5623 5624 5625 5626 5628 5629 5630 5630 5631 5631 5630 5630 5629 5629 5629 5628 5628 5628 5628 5628 5627 5626 5626 5625 5625 5625 5625 5624
5597 5593 5600 5603 5607 5611 5611 5611 5613 5612 5608 5610 5611 5611 5612 5614 5614 5614 5614 5615 5616 5616 5618 5619 5620 5621 5622 5623 5623 5623 5623 5623 5623 5622 5622 5622 5621 5621 5621 5621 5621 5621 5620 5619 5619 5619 5619 5619 5618
5591 5592 5596 5597 5600 5601 5602 5602 5599 5600 5601 5605 5606 5606 5605 5605 5606 5606 5606 5607 5608 5609 5611 5612 5613 5614 5615 5616 5616 5616 5616 5616 5616 5616 5615 5615 5614 5613 5613 5614 5614 5614 5614 5613 5613 5613 5613 5612 5612
5584 5585 5589 5590 5591 5592 5593 5591 5590 5591 5594 5597 5598 5598 5597 5598 5598 5599 5600 5601 5601 5603 5604 5605 5607 5607 5609 5609 5610 5610 5610 5609 5610 5609 5609 5609 5608 5607 5606 5606 5607 5607 5607 5607 5607 5606 5606 5605 5605
5579 5579 5579 5583 5585 5586 5584 5583 5583 5586 5588 5589 5589 5588 5589 5590 5591 5591 5591 5592 5593 5596 5597 5598 5599 5601 5602 5603 5603 5603 5603 5602 5602 5603 5602 5602 5602 5601 5600 5600 5600 5600 5600 5600 5600 5600 5599 5598 5598
5572 5570 5570 5574 5577 5578 5578 5574 5575 5580 5580 5580 5580 5581 5581 5582 5583 5583 5583 5584 5586 5588 5589 5591 5593 5594 5595 5595 5596 5596 5595 5595 5595 5595 5595 5595 5595 5594 5594 5593 5593 5593 5593 5593 5593 5593 5592 5591 5591
5561 5556 5554 5566 5569 5570 5568 5564 5571 5572 5571 5571 5572 5572 5572 5573 5574 5574 5575 5577 5578 5580 5582 5583 5585 5586 5587 5587 5587 5588 5588 5588 5588 5587 5588 5588 5588 5587 5587 5586 5586 5586 5586 5586 5586 5585 5584 5583 5583
5542 5539 5545 5554 5560 5559 5557 5556 5562 5563 5563 5563 5564 5564 5563 5563 5564 5565 5567 5568 5570 5571 5573 5574 5576 5578 5579 5579 5579 5580 5580 5580 5580 5579 5580 5580 5580 5580 5580 5579 5579 5579 5579 5578 5578 5577 5576 5576 5575
5531 5530 5536 5541 5547 5546 5543 5546 5553 5555 5555 5554 5555 5555 5555 5554 5555 5556 5558 5560 5561 5563 5564 5566 5567 5569 5570 5570 5570 5570 5570 5570 5571 5571 5571 5572 5572 5572 5571 5571 5572 5571 5571 5570 5569 5569 5568 5568 5567
5530 5528 5528 5532 5537 5535 5535 5539 5546 5548 5547 5546 5546 5547 5547 5546 5545 5546 5548 5550 5552 5553 5555 5556 5558 5559 5560 5560 5561 5561 5560 5560 5561 5561 5561 5562 5563 5563 5563 5563 5564 5563 5562 5562 5561 5561 5559 5558 5558
5521 5519 5518 5522 5528 5526 5524 5530 5537 5539 5539 5540 5540 5539 5539 5536 5535 5536 5537 5539 5540 5542 5543 5545 5547 5549 5550 5551 5551 5551 5551 5551 5551 5551 5551 5552 5553 5554 5555 5555 5555 5555 5554 5553 5553 5553 5551 5550 5550
5514 5510 5511 5511 5515 5517 5515 5520 5528 5532 5532 5534 5533 5532 5530 5529 5526 5525 5526 5526 5528 5530 5531 5534 5536 5537 5539 5540 5541 5541 5541 5540 5539 5540 5541 5542 5543 5544 5545 5546 5546 5545 5546 5545 5544 5545 5544 5542 5541
5506 5510 5507 5506 5499 5495 5504 5496 5518 5521 5523 5525 5524 5520 5518 5517 5516 5515 5516 5516 5518 5519 5520 5522 5524 5526 5527 5529 5530 5530 5530 5530 5529 5530 5530 5531 5532 5533 5534 5535 5536 5536 5536 5537 5536 5536 5536 5535 5533
5501 5504 5500 5498 5491 5485 5488 5484 5505 5511 5515 5518 5516 5512 5509 5508 5507 5506 5506 5507 5508 5508 5509 5511 5512 5514 5516 5517 5518 5519 5519 5518 5519 5519 5519 5520 5521 5522 5523 5524 5524 5526 5526 5526 5527 5527 5526 5526 5526
5495 5491 5486 5478 5473 5470 5482 5479 5495 5499 5510 5512 5509 5504 5501 5499 5498 5497 5496 5497 5497 5497 5498 5499 5500 5501 5503 5504 5505 5506 5506 5507 5507 5507 5508 5509 5510 5511 5512 5513 5513 5514 5515 5516 5516 5516 5516 5516 5516
5484 5472 5457 5452 5446 5460 5479 5479 5490 5504 5505 5505 5502 5496 5491 5489 5487 5485 5485 5485 5485 5485 5486 5487 5488 5488 5489 5491 5492 5493 5494 5495 5496 5496 5497 5498 5499 5500 5501 5501 5502 5503 5504 5505 5505 5505 5505 5506 5506
5473 5469 5455 5446 5445 5456 5467 5471 5488 5497 5495 5493 5491 5487 5482 5479 5477 5477 5475 5475 5474 5474 5474 5475 5475 5476 5476 5478 5479 5480 5481 5482 5483 5484 5485 5487 5488 5489 5490 5491 5491 5493 5494 5494 5494 5493 5493 5494 5494
5463 5457 5461 5449 5435 5437 5454 5463 5478 5487 5485 5482 5480 5476 5473 5471 5469 5467 5466 5464 5463 5463 5463 5463 5463 5463 5464 5465 5466 5467 5468 5469 5471 5472 5474 5475 5476 5477 5479 5480 5481 5481 5482 5482 5482 5482 5482 5482 5482
5457 5453 5441 5434 5426 5431 5454 5463 5473 5481 5481 5477 5471 5467 5465 5462 5459 5457 5455 5454 5453 5452 5451 5451 5451 5451 5451 5452 5453 5455 5455 5457 5459 5461 5462 5463 5465 5466 5467 5468 5469 5469 5470 5470 5470 5470 5470 5470 5470
5442 5439 5436 5431 5428 5429 5433 5459 5474 5477 5476 5470 5465 5460 5457 5454 5450 5446 5444 5442 5441 5439 5439 5438 5438 5439 5439 5440 5441 5442 5443 5445 5446 5448 5450 5451 5453 5454 5455 5456 5457 5457 5457 5457 5457 5457 5457 5458 5458
5433 5432 5428 5424 5416 5422 5432 5453 5468 5465 5462 5459 5455 5451 5447 5444 5440 5435 5433 5430 5428 5427 5426 5425 5426 5426 5426 5427 5428 5429 5430 5432 5433 5435 5437 5438 5440 5441 5442 5443 5444 5444 5444 5444 5444 5444 5445 5445 5445